• Processing (Info)

  • MPEC 2004-F61 : 2004 FH11

    The following Minor Planet Electronic Circular may be linked-to from your own Web pages, but must not otherwise be redistributed electronically.

    A form allowing access to any MPEC is at the bottom of this page.


    Read MPEC 2004-F60 Read MPEC 2004-F62


    M.P.E.C. 2004-F61                                Issued 2004 Mar. 26, 02:06 UT
    
         The Minor Planet Electronic Circulars contain information on unusual
             minor planets and routine data on comets.  They are published
       on behalf of Commission 20 of the International Astronomical Union by the
              Minor Planet Center, Smithsonian Astrophysical Observatory,
                              Cambridge, MA 02138, U.S.A.
    
             Supported in part by the Steven and Michele Kirsch Foundation
                 Prepared using the Tamkin Foundation Computer Network
    
                                  MPC@CFA.HARVARD.EDU
              URL http://cfa-www.harvard.edu/iau/mpc.html  ISSN 1523-6714
    
                                       2004 FH11
    
    Observations:
         K04F11H* C2004 03 23.45478 17 26 38.15 -12 14 49.6          19.7   EF061704
         K04F11H  C2004 03 23.46560 17 26 39.80 -12 14 37.5          19.6   EF061704
         K04F11H  C2004 03 23.47649 17 26 41.55 -12 14 23.5          18.9   EF061704
         K04F11H  C2004 03 23.48714 17 26 43.27 -12 14 11.2          18.9   EF061704
         K04F11H 5C2004 03 24.50347 17 29 29.95 -11 52 48.3          18.5 R EF061673
         K04F11H 5C2004 03 24.50567 17 29 30.32 -11 52 45.4                 EF061673
         K04F11H 5C2004 03 24.50764 17 29 30.62 -11 52 43.2                 EF061673
         K04F11H 5C2004 03 24.50984 17 29 30.98 -11 52 40.2                 EF061673
         K04F11H  C2004 03 25.44192 17 32 04.22 -11 32 30.8          19.5   EF061704
         K04F11H  C2004 03 25.45265 17 32 05.93 -11 32 16.8          19.2   EF061704
         K04F11H  C2004 03 25.47383 17 32 09.34 -11 31 49.5          19.4   EF061704
         K04F11H IC2004 03 25.49483 17 32 12.67 -11 31 22.0                 EF061711
         K04F11H 5C2004 03 25.49734 17 32 13.23 -11 31 18.9          19.0 R EF061673
         K04F11H 5C2004 03 25.49931 17 32 13.57 -11 31 16.1                 EF061673
         K04F11H  C2004 03 25.50091 17 32 13.77 -11 31 13.0                 EF061711
         K04F11H 5C2004 03 25.50127 17 32 13.89 -11 31 13.8                 EF061673
         K04F11H 5C2004 03 25.50324 17 32 14.12 -11 31 11.5                 EF061673
         K04F11H IC2004 03 25.50702 17 32 14.68 -11 31 09.3                 EF061711
         K04F11H tC2004 03 25.67847 17 32 43.03 -11 27 09.3          19.0 R EF061474
         K04F11H  C2004 03 25.68079 17 32 43.41 -11 27 06.2          18.9 R EF061474
         K04F11H  C2004 03 25.68275 17 32 43.78 -11 27 04.0          19.2 R EF061474
         K04F11H  C2004 03 25.68438 17 32 44.07 -11 27 01.4          18.0 R EF061474
         K04F11H  C2004 03 25.69769 17 32 46.24 -11 26 43.3          18.3 R EF061474
         K04F11H  C2004 03 25.70058 17 32 46.63 -11 26 40.2          18.2 R EF061474
    
    Observer details:
    474 Mount John Observatory, Lake Tekapo.  Observer A. C. Gilmore.  Measurer
        P. M. Kilmartin.  1.0-m f/7.7 reflector + CCD.
    673 Table Mountain Observatory, Wrightwood.  Observer J. Young.  0.6-m
        reflector + CCD.
    704 Lincoln Laboratory ETS, New Mexico.  Observers M. Blythe, F. Shelly,
        M. Bezpalko, R. Huber, L. Manguso, D. Torres, R. Kracke, M. McCleary,
        H. Stange, A. Milner.  Measurers J. Stuart, R. Sayer, J. Evans, J. Kommers.
        1.0-m f/2.15 reflector + CCD.
    711 McDonald Observatory.  Observer J. G. Ries.  0.76-m reflector with prime
        focus corrector + CCD.
    
    Orbital elements:
    2004 FH11
    Epoch 2004 Mar. 16.0 TT = JDT 2453080.5                 MPC
    M 338.28105              (2000.0)            P               Q
    n   0.22651346     Peri.   83.03639     +0.27923927     +0.94691041
    a   2.6652628      Node   205.03212     -0.96018035     +0.27381940
    e   0.5168729      Incl.   22.12043     -0.00889491     +0.16847435
    P   4.35           H   16.4           G   0.15
    From 23 observations 2004 Mar. 23-25.
    
    Ephemeris:
    2004 FH11                a,e,i = 2.67, 0.52, 22                  q = 1.2877
    Date    TT    R. A. (2000) Decl.     Delta      r     Elong.  Phase     V
    2004 03 26    17 33.59   -11 20.1    1.025    1.572   102.0    38.4    19.0
    2004 04 05    18 01.30   -07 07.4    0.917    1.517   104.5    39.7    18.7
    2004 04 15    18 29.43   -01 53.0    0.826    1.466   106.2    41.1    18.4
    2004 04 25    18 57.71   +04 17.5    0.753    1.420   106.8    42.7    18.2
    2004 05 05    19 25.92   +11 07.5    0.699    1.379   106.3    44.6    18.0
    2004 05 15    19 53.79   +18 11.9    0.663    1.345   105.0    46.5    17.9
    2004 05 25    20 20.96   +25 01.3    0.641    1.318   103.3    48.4    17.9
    2004 06 04    20 47.08   +31 09.6    0.631    1.299   101.8    49.9    17.8
    2004 06 14    21 11.72   +36 20.8    0.626    1.289   100.8    50.7    17.8
    2004 06 24    21 34.30   +40 26.3    0.625    1.288   100.7    50.8    17.8
    2004 07 04    21 54.23   +43 23.1    0.623    1.297   101.8    50.1    17.8
    2004 07 14    22 10.89   +45 10.8    0.619    1.314   104.3    48.6    17.8
    2004 07 24    22 23.67   +45 46.2    0.613    1.340   108.1    46.1    17.7
    2004 08 03    22 32.43   +45 04.2    0.604    1.373   113.5    42.7    17.6
    2004 08 13    22 37.44   +42 58.5    0.597    1.412   120.4    38.2    17.6
    2004 08 23    22 39.59   +39 23.7    0.594    1.458   128.7    32.8    17.5
    2004 09 02    22 40.39   +34 25.3    0.600    1.508   137.7    26.8    17.4
    2004 09 12    22 41.23   +28 25.3    0.623    1.562   146.0    21.1    17.4
    2004 09 22    22 43.28   +22 01.1    0.665    1.619   151.3    17.3    17.5
    2004 10 02    22 47.23   +15 56.2    0.731    1.678   151.1    16.7    17.7
    2004 10 12    22 53.18   +10 41.7    0.820    1.740   146.1    18.7    18.1
    2004 10 22    23 01.03   +06 31.8    0.930    1.802   138.7    21.4    18.6
    2004 11 01    23 10.52   +03 26.9    1.060    1.865   130.6    23.8    19.0
    2004 11 11    23 21.32   +01 19.1    1.205    1.928   122.6    25.6    19.4
    2004 11 21    23 33.17   -00 01.5    1.364    1.992   114.8    26.7    19.8
    2004 12 01    23 45.82   -00 44.6    1.533    2.055   107.4    27.2    20.1
    2004 12 11    23 59.09   -00 58.5    1.710    2.119   100.2    27.2    20.4
    2004 12 21    00 12.84   -00 49.9    1.892    2.181    93.2    26.8    20.7
    2004 12 31    00 26.95   -00 24.4    2.078    2.243    86.4    25.9    20.9
    2005 01 10    00 41.32   +00 13.5    2.265    2.304    79.8    24.8    21.1
    2005 01 20    00 55.92   +01 00.5    2.451    2.365    73.4    23.5    21.3
    2005 01 30    01 10.68   +01 53.6    2.633    2.424    67.0    22.0    21.5
    2005 02 09    01 25.56   +02 50.4    2.811    2.483    60.7    20.3    21.6
    
    Kyle E. Smalley              (C) Copyright 2004 MPC           M.P.E.C. 2004-F61
    

    Read MPEC 2004-F60 Read MPEC 2004-F62


    MPEC number:

    Enter an MPEC number in one of the following forms:

    • 1997-B01 (the full form)
    • J97B01 (the packed version of the full form)
    • B01 (the abbreviated form)